Time,TemperatureF,DewpointF,PressureIn,WindDirection,WindDirectionDegrees,WindSpeedMPH,WindSpeedGustMPH,Humidity,HourlyPrecipIn,Conditions,Clouds,dailyrainin,SolarRadiationWatts/m^2,SoftwareType,DateUTC
2014-04-18 00:01:00,37.8,23.5,30.62,ESE,120,0.0,2.0,56,0.00,,,0.00,278.0,meteobridge,2014-04-18 04:01:00,
2014-04-18 00:02:00,37.8,23.5,30.62,West,259,0.0,0.0,56,0.00,,,0.00,278.0,meteobridge,2014-04-18 04:02:00,
2014-04-18 00:03:00,37.8,23.5,30.62,West,259,0.9,0.9,56,0.00,,,0.00,278.0,meteobridge,2014-04-18 04:03:00,
2014-04-18 00:04:00,37.6,23.4,30.63,West,276,0.9,0.9,56,0.00,,,0.00,278.0,meteobridge,2014-04-18 04:04:00,
2014-04-18 00:09:00,37.6,23.7,30.62,East,94,0.0,0.9,57,0.00,,,0.00,278.0,meteobridge,2014-04-18 04:09:00,
2014-04-18 00:15:00,37.4,23.5,30.62,SSW,210,0.0,0.0,57,0.00,,,0.00,278.0,meteobridge,2014-04-18 04:15:00,
2014-04-18 00:20:00,37.2,23.4,30.62,East,93,0.0,2.0,57,0.00,,,0.00,278.0,meteobridge,2014-04-18 04:20:00,
2014-04-18 00:25:00,37.2,23.4,30.62,SSW,207,0.0,8.1,57,0.00,,,0.00,278.0,meteobridge,2014-04-18 04:25:00,
2014-04-18 00:30:00,37.0,23.2,30.62,ESE,110,0.0,2.0,57,0.00,,,0.00,278.0,meteobridge,2014-04-18 04:30:00,
2014-04-18 00:35:00,36.9,23.5,30.62,SE,132,0.9,2.9,58,0.00,,,0.00,278.0,meteobridge,2014-04-18 04:35:00,
2014-04-18 00:40:00,36.9,23.5,30.62,SSW,199,2.0,2.0,58,0.00,,,0.00,278.0,meteobridge,2014-04-18 04:40:00,
2014-04-18 00:45:00,36.7,23.4,30.62,SSE,159,0.9,0.9,58,0.00,,,0.00,278.0,meteobridge,2014-04-18 04:45:00,
2014-04-18 00:50:00,36.5,23.2,30.62,ESE,110,0.9,0.9,58,0.00,,,0.00,278.0,meteobridge,2014-04-18 04:50:00,
2014-04-18 00:55:00,36.3,23.0,30.62,SE,127,2.0,4.9,58,0.00,,,0.00,278.0,meteobridge,2014-04-18 04:55:00,
2014-04-18 01:00:00,36.3,23.4,30.62,SW,225,0.9,2.0,59,0.00,,,0.00,278.0,meteobridge,2014-04-18 05:00:00,
2014-04-18 01:05:00,36.3,23.0,30.62,East,96,0.0,2.0,58,0.00,,,0.00,278.0,meteobridge,2014-04-18 05:05:00,
2014-04-18 01:10:00,36.0,22.6,30.62,ENE,69,0.9,2.9,58,0.00,,,0.00,278.0,meteobridge,2014-04-18 05:10:00,
2014-04-18 01:15:00,35.8,22.8,30.62,SE,136,0.0,0.9,59,0.00,,,0.00,278.0,meteobridge,2014-04-18 05:15:00,
2014-04-18 01:21:00,35.6,22.3,30.62,NNW,342,0.9,0.9,58,0.00,,,0.00,278.0,meteobridge,2014-04-18 05:21:00,
2014-04-18 01:26:00,35.4,22.5,30.62,NNW,333,0.0,0.0,59,0.00,,,0.00,278.0,meteobridge,2014-04-18 05:26:00,
2014-04-18 01:31:00,35.2,22.3,30.62,SE,134,0.9,0.9,59,0.00,,,0.00,278.0,meteobridge,2014-04-18 05:31:00,
2014-04-18 01:36:00,35.2,22.3,30.62,ENE,69,0.0,0.9,59,0.00,,,0.00,278.0,meteobridge,2014-04-18 05:36:00,
2014-04-18 01:41:00,35.1,22.1,30.62,ENE,69,0.0,0.9,59,0.00,,,0.00,278.0,meteobridge,2014-04-18 05:41:00,
2014-04-18 01:46:00,34.9,22.5,30.63,ENE,70,0.0,0.9,60,0.00,,,0.00,278.0,meteobridge,2014-04-18 05:46:00,
2014-04-18 01:51:00,34.7,22.3,30.63,SE,124,0.0,2.9,60,0.00,,,0.00,278.0,meteobridge,2014-04-18 05:51:00,
2014-04-18 01:56:00,34.5,22.1,30.63,SE,134,0.0,2.0,60,0.00,,,0.00,278.0,meteobridge,2014-04-18 05:56:00,
2014-04-18 02:02:00,34.5,22.5,30.63,SE,124,0.0,2.0,61,0.00,,,0.00,278.0,meteobridge,2014-04-18 06:02:00,
2014-04-18 02:07:00,34.3,22.3,30.63,ESE,113,0.0,2.9,61,0.00,,,0.00,278.0,meteobridge,2014-04-18 06:07:00,
2014-04-18 02:12:00,34.2,22.1,30.63,SE,126,0.0,0.9,61,0.00,,,0.00,278.0,meteobridge,2014-04-18 06:12:00,
2014-04-18 02:17:00,34.0,21.9,30.62,SE,145,0.9,0.9,61,0.00,,,0.00,278.0,meteobridge,2014-04-18 06:17:00,
2014-04-18 02:22:00,34.0,21.9,30.62,ESE,113,0.0,0.9,61,0.00,,,0.00,278.0,meteobridge,2014-04-18 06:22:00,
2014-04-18 02:27:00,33.8,22.1,30.62,SE,131,0.0,0.0,62,0.00,,,0.00,278.0,meteobridge,2014-04-18 06:27:00,
2014-04-18 02:32:00,33.6,21.9,30.62,SE,141,0.0,0.9,62,0.00,,,0.00,278.0,meteobridge,2014-04-18 06:32:00,
2014-04-18 02:38:00,33.4,21.7,30.62,East,101,0.0,0.0,62,0.00,,,0.00,278.0,meteobridge,2014-04-18 06:38:00,
2014-04-18 02:43:00,33.3,22.5,30.62,SE,141,0.0,0.9,64,0.00,,,0.00,278.0,meteobridge,2014-04-18 06:43:00,
2014-04-18 02:48:00,33.1,22.6,30.62,WSW,244,0.9,0.9,65,0.00,,,0.00,278.0,meteobridge,2014-04-18 06:48:00,
2014-04-18 02:54:00,33.1,22.3,30.61,East,83,0.0,0.0,64,0.00,,,0.00,278.0,meteobridge,2014-04-18 06:54:00,
2014-04-18 02:59:00,32.9,22.1,30.61,ESE,122,0.0,2.0,64,0.00,,,0.00,278.0,meteobridge,2014-04-18 06:59:00,
2014-04-18 03:04:00,32.7,21.9,30.61,ESE,118,0.0,0.9,64,0.00,,,0.00,278.0,meteobridge,2014-04-18 07:04:00,
2014-04-18 03:09:00,32.5,22.1,30.61,ESE,118,0.0,0.9,65,0.00,,,0.00,278.0,meteobridge,2014-04-18 07:09:00,
2014-04-18 03:14:00,32.5,22.1,30.61,SSW,198,2.0,2.0,65,0.00,,,0.00,278.0,meteobridge,2014-04-18 07:14:00,
2014-04-18 03:19:00,32.4,22.3,30.61,SSE,154,0.0,0.9,66,0.00,,,0.00,278.0,meteobridge,2014-04-18 07:19:00,
2014-04-18 03:24:00,32.4,22.3,30.62,SE,130,0.0,0.0,66,0.00,,,0.00,278.0,meteobridge,2014-04-18 07:24:00,
2014-04-18 03:29:00,32.0,21.9,30.62,SE,125,0.0,0.0,66,0.00,,,0.00,278.0,meteobridge,2014-04-18 07:29:00,
2014-04-18 03:35:00,31.8,21.7,30.61,SSE,148,0.0,0.0,66,0.00,,,0.00,278.0,meteobridge,2014-04-18 07:35:00,
2014-04-18 03:40:00,31.5,21.7,30.61,SSE,148,0.0,0.0,67,0.00,,,0.00,278.0,meteobridge,2014-04-18 07:40:00,
2014-04-18 03:45:00,30.9,21.9,30.60,SSE,149,0.0,0.0,69,0.00,,,0.00,278.0,meteobridge,2014-04-18 07:45:00,
2014-04-18 03:51:00,30.6,21.9,30.59,SSE,149,0.0,0.0,70,0.00,,,0.00,278.0,meteobridge,2014-04-18 07:51:00,
2014-04-18 03:56:00,30.0,22.1,30.59,SSE,149,0.0,0.0,72,0.00,,,0.00,278.0,meteobridge,2014-04-18 07:56:00,
2014-04-18 04:01:00,29.7,22.1,30.59,SSE,149,0.0,0.0,73,0.00,,,0.00,278.0,meteobridge,2014-04-18 08:01:00,
2014-04-18 04:06:00,28.9,21.7,30.59,SSE,149,0.0,0.0,74,0.00,,,0.00,278.0,meteobridge,2014-04-18 08:06:00,
2014-04-18 04:11:00,28.9,22.1,30.58,SSE,149,0.0,0.0,75,0.00,,,0.00,278.0,meteobridge,2014-04-18 08:11:00,
2014-04-18 04:17:00,28.9,22.1,30.58,SSE,149,0.0,0.0,75,0.00,,,0.00,278.0,meteobridge,2014-04-18 08:17:00,
2014-04-18 04:22:00,28.6,21.9,30.57,SSE,149,0.0,0.0,76,0.00,,,0.00,278.0,meteobridge,2014-04-18 08:22:00,
2014-04-18 04:27:00,28.2,21.9,30.57,SSE,149,0.0,0.0,77,0.00,,,0.00,278.0,meteobridge,2014-04-18 08:27:00,
2014-04-18 04:32:00,27.9,21.6,30.58,West,269,0.0,0.9,77,0.00,,,0.00,278.0,meteobridge,2014-04-18 08:32:00,
2014-04-18 04:37:00,27.7,21.7,30.57,West,269,0.0,0.0,78,0.00,,,0.00,278.0,meteobridge,2014-04-18 08:37:00,
2014-04-18 04:42:00,27.5,21.6,30.57,West,269,0.0,0.0,78,0.00,,,0.00,278.0,meteobridge,2014-04-18 08:42:00,
2014-04-18 04:47:00,27.7,22.1,30.56,West,269,0.0,0.0,79,0.00,,,0.00,278.0,meteobridge,2014-04-18 08:47:00,
2014-04-18 04:53:00,27.3,21.7,30.56,West,269,0.0,0.0,79,0.00,,,0.00,278.0,meteobridge,2014-04-18 08:53:00,
2014-04-18 04:58:00,27.1,21.7,30.56,West,269,0.0,0.0,80,0.00,,,0.00,278.0,meteobridge,2014-04-18 08:58:00,
2014-04-18 05:03:00,26.8,21.4,30.55,WSW,240,0.9,0.9,80,0.00,,,0.00,278.0,meteobridge,2014-04-18 09:03:00,
2014-04-18 05:08:00,26.8,21.4,30.55,WSW,240,0.0,0.0,80,0.00,,,0.00,278.0,meteobridge,2014-04-18 09:08:00,
2014-04-18 05:13:00,26.4,21.4,30.55,WSW,240,0.0,0.0,81,0.00,,,0.00,278.0,meteobridge,2014-04-18 09:13:00,
2014-04-18 05:18:00,26.4,21.4,30.54,WSW,240,0.0,0.0,81,0.00,,,0.00,278.0,meteobridge,2014-04-18 09:18:00,
2014-04-18 05:24:00,26.2,21.6,30.53,WSW,240,0.0,0.0,82,0.00,,,0.00,278.0,meteobridge,2014-04-18 09:24:00,
2014-04-18 05:29:00,25.9,21.2,30.53,WSW,240,0.0,0.0,82,0.00,,,0.00,278.0,meteobridge,2014-04-18 09:29:00,
2014-04-18 05:34:00,25.9,21.4,30.53,WSW,240,0.0,0.0,83,0.00,,,0.00,278.0,meteobridge,2014-04-18 09:34:00,
2014-04-18 05:40:00,25.9,21.4,30.53,WSW,240,0.0,0.0,83,0.00,,,0.00,278.0,meteobridge,2014-04-18 09:40:00,
2014-04-18 05:45:00,25.7,21.2,30.53,WSW,240,0.0,0.0,83,0.00,,,0.00,278.0,meteobridge,2014-04-18 09:45:00,
2014-04-18 05:50:00,25.5,21.0,30.53,WSW,240,0.0,0.0,83,0.00,,,0.00,278.0,meteobridge,2014-04-18 09:50:00,
2014-04-18 05:55:00,25.3,21.2,30.53,WSW,240,0.0,0.0,84,0.00,,,0.00,278.0,meteobridge,2014-04-18 09:55:00,
2014-04-18 06:00:00,25.3,21.2,30.53,WSW,240,0.0,0.9,84,0.00,,,0.00,278.0,meteobridge,2014-04-18 10:00:00,
2014-04-18 06:05:00,25.5,21.4,30.54,SW,236,0.0,0.9,84,0.00,,,0.00,278.0,meteobridge,2014-04-18 10:05:00,
2014-04-18 06:10:00,26.1,21.6,30.54,WSW,238,0.0,0.9,83,0.00,,,0.00,278.0,meteobridge,2014-04-18 10:10:00,
2014-04-18 06:15:00,26.2,21.6,30.54,WSW,238,0.0,0.9,82,0.00,,,0.00,278.0,meteobridge,2014-04-18 10:15:00,
2014-04-18 06:20:00,25.7,21.2,30.54,WSW,238,0.0,0.9,83,0.00,,,0.00,278.0,meteobridge,2014-04-18 10:20:00,
2014-04-18 06:25:00,25.7,21.6,30.54,WSW,238,0.0,0.0,84,0.00,,,0.00,278.0,meteobridge,2014-04-18 10:25:00,
2014-04-18 06:31:00,25.7,21.2,30.54,WSW,238,0.0,0.0,83,0.00,,,0.00,278.0,meteobridge,2014-04-18 10:31:00,
2014-04-18 06:36:00,25.5,21.4,30.54,WSW,238,0.0,0.0,84,0.00,,,0.00,278.0,meteobridge,2014-04-18 10:36:00,
2014-04-18 06:41:00,25.5,21.4,30.54,WSW,238,0.0,0.9,84,0.00,,,0.00,278.0,meteobridge,2014-04-18 10:41:00,
2014-04-18 06:46:00,25.7,21.7,30.54,WSW,238,0.0,0.0,85,0.00,,,0.00,278.0,meteobridge,2014-04-18 10:46:00,
2014-04-18 06:51:00,26.1,21.9,30.54,WSW,238,0.0,0.9,84,0.00,,,0.00,278.0,meteobridge,2014-04-18 10:51:00,
2014-04-18 06:56:00,26.2,22.1,30.54,WSW,238,0.0,0.0,84,0.00,,,0.00,278.0,meteobridge,2014-04-18 10:56:00,
2014-04-18 07:02:00,26.2,22.1,30.53,WSW,238,0.0,0.0,84,0.00,,,0.00,278.0,meteobridge,2014-04-18 11:02:00,
2014-04-18 07:07:00,26.8,22.6,30.53,WSW,238,0.0,0.0,84,0.00,,,0.00,278.0,meteobridge,2014-04-18 11:07:00,
2014-04-18 07:12:00,27.1,22.6,30.53,WSW,238,0.0,0.9,83,0.00,,,0.00,278.0,meteobridge,2014-04-18 11:12:00,
2014-04-18 07:17:00,28.0,22.6,30.53,WSW,237,0.9,0.9,80,0.00,,,0.00,278.0,meteobridge,2014-04-18 11:17:00,
2014-04-18 07:22:00,29.1,22.8,30.54,SW,219,2.0,2.9,77,0.00,,,0.00,278.0,meteobridge,2014-04-18 11:22:00,
2014-04-18 07:27:00,30.2,23.2,30.54,WSW,250,2.0,4.0,75,0.00,,,0.00,278.0,meteobridge,2014-04-18 11:27:00,
2014-04-18 07:32:00,30.7,23.2,30.54,ENE,58,2.0,2.9,73,0.00,,,0.00,278.0,meteobridge,2014-04-18 11:32:00,
2014-04-18 07:37:00,31.3,23.0,30.55,West,269,0.0,2.0,71,0.00,,,0.00,278.0,meteobridge,2014-04-18 11:37:00,
2014-04-18 07:42:00,31.6,22.6,30.55,SW,231,0.9,4.9,69,0.00,,,0.00,278.0,meteobridge,2014-04-18 11:42:00,
2014-04-18 07:47:00,32.0,23.0,30.55,SW,217,0.9,4.9,69,0.00,,,0.00,278.0,meteobridge,2014-04-18 11:47:00,
2014-04-18 07:52:00,32.2,22.1,30.55,West,264,0.9,4.0,66,0.00,,,0.00,278.0,meteobridge,2014-04-18 11:52:00,
2014-04-18 07:57:00,32.4,22.6,30.55,SE,127,4.9,8.1,67,0.00,,,0.00,278.0,meteobridge,2014-04-18 11:57:00,
2014-04-18 08:02:00,32.5,22.8,30.55,SW,228,2.9,6.0,67,0.00,,,0.00,278.0,meteobridge,2014-04-18 12:02:00,
2014-04-18 08:07:00,33.1,22.6,30.55,WSW,254,2.0,2.9,65,0.00,,,0.00,278.0,meteobridge,2014-04-18 12:07:00,
2014-04-18 08:13:00,33.4,23.0,30.55,SW,227,2.0,6.0,65,0.00,,,0.00,278.0,meteobridge,2014-04-18 12:13:00,
2014-04-18 08:18:00,33.6,22.8,30.55,West,277,0.0,4.9,64,0.00,,,0.00,278.0,meteobridge,2014-04-18 12:18:00,
2014-04-18 08:23:00,34.0,22.3,30.55,SE,129,0.0,2.0,62,0.00,,,0.00,278.0,meteobridge,2014-04-18 12:23:00,
2014-04-18 08:28:00,34.2,22.5,30.55,ESE,105,2.0,2.9,62,0.00,,,0.00,278.0,meteobridge,2014-04-18 12:28:00,
2014-04-18 08:33:00,34.5,22.5,30.55,SW,219,0.0,4.9,61,0.00,,,0.00,278.0,meteobridge,2014-04-18 12:33:00,
2014-04-18 08:38:00,34.9,22.5,30.55,South,171,0.0,4.0,60,0.00,,,0.00,278.0,meteobridge,2014-04-18 12:38:00,
2014-04-18 08:43:00,35.8,22.1,30.55,South,191,0.9,4.9,57,0.00,,,0.00,278.0,meteobridge,2014-04-18 12:43:00,
2014-04-18 08:48:00,36.5,22.6,30.55,WSW,242,0.0,0.9,57,0.00,,,0.00,278.0,meteobridge,2014-04-18 12:48:00,
2014-04-18 08:53:00,37.0,22.5,30.55,SSW,209,2.9,4.9,55,0.00,,,0.00,278.0,meteobridge,2014-04-18 12:53:00,
2014-04-18 08:58:00,37.0,21.9,30.55,West,274,0.9,6.0,54,0.00,,,0.00,278.0,meteobridge,2014-04-18 12:58:00,
2014-04-18 09:03:00,37.8,22.6,30.56,SSW,210,4.0,8.1,54,0.00,,,0.00,278.0,meteobridge,2014-04-18 13:03:00,
2014-04-18 09:08:00,37.9,22.3,30.56,SE,142,2.9,6.0,53,0.00,,,0.00,278.0,meteobridge,2014-04-18 13:08:00,
2014-04-18 09:13:00,38.1,22.5,30.55,SE,136,0.9,4.9,53,0.00,,,0.00,278.0,meteobridge,2014-04-18 13:13:00,
2014-04-18 09:18:00,38.5,23.4,30.55,ENE,71,2.9,6.0,54,0.00,,,0.00,278.0,meteobridge,2014-04-18 13:18:00,
2014-04-18 09:23:00,38.8,23.2,30.56,ENE,70,0.9,4.9,53,0.00,,,0.00,278.0,meteobridge,2014-04-18 13:23:00,
2014-04-18 09:29:00,39.4,23.7,30.55,NE,52,0.9,4.0,53,0.00,,,0.00,278.0,meteobridge,2014-04-18 13:29:00,
2014-04-18 09:34:00,39.7,24.1,30.55,SE,136,4.0,8.1,53,0.00,,,0.00,278.0,meteobridge,2014-04-18 13:34:00,
2014-04-18 09:39:00,39.4,23.7,30.55,West,264,4.9,6.9,53,0.00,,,0.00,278.0,meteobridge,2014-04-18 13:39:00,
2014-04-18 09:44:00,39.4,23.7,30.54,SW,218,2.9,10.1,53,0.00,,,0.00,278.0,meteobridge,2014-04-18 13:44:00,
2014-04-18 09:49:00,39.6,23.9,30.54,SSE,157,0.9,4.9,53,0.00,,,0.00,278.0,meteobridge,2014-04-18 13:49:00,
2014-04-18 09:54:00,39.7,24.4,30.54,ESE,120,0.9,2.9,54,0.00,,,0.00,278.0,meteobridge,2014-04-18 13:54:00,
2014-04-18 09:59:00,39.9,24.6,30.53,SSW,208,2.9,2.9,54,0.00,,,0.00,278.0,meteobridge,2014-04-18 13:59:00,
2014-04-18 10:04:00,40.6,24.4,30.53,SW,226,4.0,8.1,52,0.00,,,0.00,278.0,meteobridge,2014-04-18 14:04:00,
2014-04-18 10:09:00,40.3,24.4,30.53,SE,129,2.9,8.1,53,0.00,,,0.00,278.0,meteobridge,2014-04-18 14:09:00,
2014-04-18 10:14:00,40.5,25.5,30.53,SE,131,2.9,4.9,55,0.00,,,0.00,278.0,meteobridge,2014-04-18 14:14:00,
2014-04-18 10:19:00,40.8,24.6,30.53,WNW,285,2.0,4.9,52,0.00,,,0.00,278.0,meteobridge,2014-04-18 14:19:00,
2014-04-18 10:24:00,41.0,24.8,30.53,South,171,4.9,8.1,52,0.00,,,0.00,278.0,meteobridge,2014-04-18 14:24:00,
2014-04-18 10:29:00,41.0,24.8,30.52,SW,226,2.0,6.0,52,0.00,,,0.00,278.0,meteobridge,2014-04-18 14:29:00,
2014-04-18 10:34:00,41.4,25.0,30.51,ESE,118,2.0,8.9,52,0.00,,,0.00,278.0,meteobridge,2014-04-18 14:34:00,
2014-04-18 10:39:00,42.1,25.3,30.51,ESE,111,2.9,4.9,51,0.00,,,0.00,278.0,meteobridge,2014-04-18 14:39:00,
2014-04-18 10:44:00,42.3,24.4,30.50,NW,307,0.0,4.9,49,0.00,,,0.00,278.0,meteobridge,2014-04-18 14:44:00,
2014-04-18 10:49:00,42.6,27.1,30.50,SE,126,0.9,2.9,54,0.00,,,0.00,278.0,meteobridge,2014-04-18 14:49:00,
2014-04-18 10:54:00,43.2,26.2,30.50,South,186,4.0,4.9,51,0.00,,,0.00,278.0,meteobridge,2014-04-18 14:54:00,